Augusta, GA

8:46 PM EST on February 27, 2017 (GMT -0500)
Augusta Regional At Bush

Weather History for KAGS - February, 2013

Change the Weather History Date:

Sunday, February 3, 2013

  Actual Average Record
Temperature  
Mean Temperature 50 °F 47 °F  
Max Temperature 63 °F 60 °F 84 °F (1989)
Min Temperature 36 °F 34 °F 9 °F (1917)
Degree Days  
Heating Degree Days 15 18  
Month to date heating degree days 65 54  
Since 1 July heating degree days 1390 1639  
Cooling Degree Days 0 0  
Month to date cooling degree days 0 0  
Year to date cooling degree days 15 1  
Moisture  
Dew Point 31 °F    
Average Humidity 54    
Maximum Humidity 83    
Minimum Humidity 25    
Precipitation  
Precipitation T in 0.13 in 2.34 in (1982)
Month to date precipitation T 0.40  
Year to date precipitation 0.60 4.31  
Sea Level Pressure  
Sea Level Pressure 30.05 in    
Wind  
Wind Speed 12 mph (West)    
Max Wind Speed 29 mph    
Max Gust Speed 43 mph    
Visibility 10 miles    
Events      
T = Trace of Precipitation, MM = Missing Value Source: NWS Daily Summary

Daily Weather History Graph

Daily Weather History Graph

Search for Another Location

Airport or City:

Trip Planner

Search our weather history database for the weather conditions in past years. The results will help you decide how hot, cold, wet, or windy it might be!

Date:

Astronomy

Feb. 03, 2013 Rise Set
Actual Time 7:22 AM EST 6:01 PM EST
Civil Twilight 6:56 AM EST 6:27 PM EST
Nautical Twilight 6:26 AM EST 6:57 PM EST
Astronomical Twilight 5:57 AM EST 7:26 PM EST
Moon 12:47 AM EST (2/3) 11:39 AM EST (2/3)
Length of Visible Light 11h 31m
Length of Day
10h 39m
Waning Gibbous, 49% of the Moon is Illuminated
Feb 3
Waning Gibbous
Feb 10
New
Feb 17
First Quarter
Feb 25
Full
Mar 4
Last Quarter

Hourly Weather History & Observations

Time (EST) Temp. Windchill Dew Point Humidity Pressure Visibility Wind Dir Wind Speed Gust Speed Precip Events Conditions
12:53 AM 45.0 °F 42.6 °F 39.0 °F 80% 30.10 in 10.0 mi WSW 4.6 mph - 0.00 in   Overcast
1:53 AM 46.9 °F - 39.0 °F 74% 30.07 in 10.0 mi West 10.4 mph - 0.00 in   Clear
2:53 AM 46.9 °F - 39.9 °F 77% 30.07 in 10.0 mi WNW 9.2 mph - N/A   Mostly Cloudy
3:12 AM 46.4 °F 41.1 °F 39.2 °F 76% 30.08 in 10.0 mi NW 11.5 mph - N/A   Overcast
3:31 AM 44.6 °F 38.4 °F 37.4 °F 76% 30.08 in 10.0 mi WNW 12.7 mph 20.7 mph N/A   Scattered Clouds
3:53 AM 44.1 °F 37.4 °F 36.0 °F 73% 30.08 in 10.0 mi WNW 13.8 mph 21.9 mph N/A   Clear
4:53 AM 41.0 °F 34.7 °F 34.0 °F 76% 30.07 in 10.0 mi West 10.4 mph - N/A   Clear
5:53 AM 39.9 °F 33.9 °F 33.1 °F 77% 30.09 in 10.0 mi West 9.2 mph - N/A   Clear
6:53 AM 39.2 °F 33.6 °F 33.8 °F 81% 30.10 in 10.0 mi West 8.1 mph - N/A   Clear
7:53 AM 39.0 °F 34.0 °F 32.0 °F 76% 30.12 in 10.0 mi West 6.9 mph - N/A   Clear
8:53 AM 43.0 °F 37.2 °F 33.1 °F 68% 30.11 in 10.0 mi West 10.4 mph - N/A   Clear
9:53 AM 48.0 °F - 30.9 °F 52% 30.10 in 10.0 mi West 12.7 mph 19.6 mph N/A   Clear
10:53 AM 53.1 °F - 30.9 °F 43% 30.08 in 10.0 mi West 9.2 mph - N/A   Clear
11:53 AM 55.9 °F - 30.9 °F 39% 30.04 in 10.0 mi West 20.7 mph 31.1 mph N/A   Clear
12:53 PM 59.0 °F - 28.9 °F 32% 29.99 in 10.0 mi West 20.7 mph 34.5 mph N/A   Clear
1:53 PM 62.1 °F - 28.9 °F 29% 29.96 in 10.0 mi West 25.3 mph 33.4 mph N/A   Scattered Clouds
2:53 PM 61.0 °F - 28.0 °F 29% 29.94 in 10.0 mi West 21.9 mph 34.5 mph N/A   Partly Cloudy
3:53 PM 62.1 °F - 26.1 °F 25% 29.94 in 10.0 mi West 21.9 mph 31.1 mph N/A   Clear
4:53 PM 60.1 °F - 28.0 °F 30% 29.96 in 10.0 mi West 19.6 mph 26.5 mph N/A   Clear
5:53 PM 57.9 °F - 26.1 °F 30% 29.97 in 10.0 mi WNW 13.8 mph - N/A   Clear
6:53 PM 55.0 °F - 24.1 °F 30% 30.01 in 10.0 mi NW 10.4 mph - N/A   Clear
7:53 PM 48.9 °F - 25.0 °F 39% 30.02 in 10.0 mi NW 5.8 mph - N/A   Clear
8:53 PM 41.0 °F 38.0 °F 28.0 °F 60% 30.05 in 10.0 mi West 4.6 mph - N/A   Clear
9:53 PM 37.9 °F 33.5 °F 28.0 °F 68% 30.05 in 10.0 mi West 5.8 mph - N/A   Clear
10:53 PM 37.0 °F 32.4 °F 27.0 °F 67% 30.06 in 10.0 mi West 5.8 mph - N/A   Clear
11:53 PM 41.0 °F 39.0 °F 27.0 °F 57% 30.07 in 10.0 mi West 3.5 mph - N/A   Clear